Location: Eschentzwiller
(47.7125°N, 7.3981°E)
Time: 01:25:29
(UTC+00:00)

CZ-4 R/B - Pass Details

Date: 27 October 2020
Orbit: 532 x 598 km, 97.7° (Epoch: 26 November)

Event Time Altitude Azimuth Distance (km) Brightness Sun altitude
Rises 17:23:11 0° 146° (SE) 2,703 4.6 -11.2°
Reaches altitude 10° 17:25:24 10° 138° (SE) 1,806 3.6 -11.5°
Maximum altitude 17:29:01 38° 70° (ENE) 839 1.8 -12.1°
Drops below altitude 10° 17:32:37 10° 2° (N) 1,799 3.9 -12.7°
Sets 17:34:49 0° 354° (N) 2,692 4.9 -13.1°
